EW7112 Weather Reports


Display with metric or nautical units.
time (UTC)temp
F
wind
direction
speed
MPH
gust
MPH
rain 1hr
in
rain 24hr
in
rain mn
in
humidity
%
barometer
mb
20220817020018 0 212 0.0 1.0 0.00 0.00 0.00 990.5
20220817014515 0 212 0.0 1.0 0.00 0.00 0.00 990.4
20220817013040 0 212 0.0 1.0 0.00 0.00 0.00 990.4
20220817011505 0 212 0.0 1.0 0.00 0.00 0.00 990.3
20220817010001 0 212 0.0 1.0 0.00 0.00 0.00 990.4
20220817004557 0 212 1.0 4.0 0.00 0.00 0.00 990.2
20220817003108 0 224 0.0 2.0 0.00 0.00 0.00 990.1
20220817001553 0 224 0.0 4.0 0.00 0.00 0.00 990.1
20220817000053 0 216 1.0 3.0 0.00 0.00 0.00 990.2
20220816234541 0 191 4.0 7.0 0.00 0.00 0.00 990.2
20220816233038 0 225 3.0 6.0 0.00 0.00 0.00 990.3
20220816231531 0 241 3.0 7.0 0.00 0.00 0.00 990.3
20220816230032 0 281 1.0 5.0 0.00 0.00 0.00 990.4
20220816224536 0 205 1.0 3.0 0.00 0.00 0.00 990.4
20220816223048 0 153 1.0 11.0 0.00 0.00 0.00 990.5
20220816221513 0 113 3.0 6.0 0.00 0.00 0.00 990.5
20220816220018 0 206 3.0 9.0 0.00 0.00 0.00 990.7
20220816214505 0 132 3.0 9.0 0.00 0.00 0.00 990.9
20220816213123 0 236 4.0 7.0 0.00 0.00 0.00 991.1
20220816211706 0 161 4.0 10.0 0.00 0.00 0.00 991.1
20220816210053 0 217 3.0 13.0 0.00 0.00 0.00 991.3
20220816204547 0 125 2.0 9.0 0.00 0.00 0.00 991.6
20220816203056 0 73 2.0 6.0 0.00 0.00 0.00 991.9
20220816201538 0 53 3.0 7.0 0.00 0.00 0.00 992.1
20220816200037 0 194 3.0 12.0 0.00 0.00 0.00 992.2
20220816194533 0 171 3.0 9.0 0.00 0.00 0.00 992.4
20220816193041 0 158 5.0 11.0 0.00 0.00 0.00 992.5
20220816191530 0 129 4.0 10.0 0.00 0.00 0.00 992.7
20220816190045 0 168 6.0 13.0 0.00 0.00 0.00 992.8
20220816184530 0 174 4.0 12.0 0.00 0.00 0.00 992.8
20220816183044 0 152 6.0 15.0 0.00 0.00 0.00 993.0
20220816181531 0 218 6.0 14.0 0.00 0.00 0.00 993.1
20220816180049 0 86 5.0 12.0 0.00 0.00 0.00 993.4
20220816174525 0 158 2.0 10.0 0.00 0.00 0.00 993.5
20220816173033 0 117 2.0 11.0 0.00 0.00 0.00 993.8
20220816171519 0 223 2.0 11.0 0.00 0.00 0.00 993.8
20220816170040 0 217 4.0 11.0 0.00 0.00 0.00 993.9
20220816164518 0 255 3.0 10.0 0.00 0.00 0.00 994.1
20220816163019 0 328 1.0 8.0 0.00 0.00 0.00 994.2
20220816161612 0 291 3.0 9.0 0.00 0.00 0.00 994.3
20220816160107 0 319 3.0 8.0 0.00 0.00 0.00 994.3
20220816154555 0 240 6.0 12.0 0.00 0.00 0.00 994.2
20220816153048 0 199 4.0 13.0 0.00 0.00 0.00 994.1
20220816151547 0 198 4.0 12.0 0.00 0.00 0.00 994.0
20220816150042 0 189 4.0 9.0 0.00 0.00 0.00 994.1
20220816144533 0 224 4.0 8.0 0.00 0.00 0.00 994.1
20220816143031 0 197 3.0 10.0 0.00 0.00 0.00 994.2
20220816141530 0 258 4.0 8.0 0.00 0.00 0.00 994.2
20220816140019 0 229 2.0 5.0 0.00 0.00 0.00 994.1
20220816134517 0 226 2.0 5.0 0.00 0.00 0.00 993.9
20220816133024 0 199 2.0 5.0 0.00 0.00 0.00 993.7
20220816131506 0 198 2.0 6.0 0.00 0.00 0.00 993.5
20220816130006 0 196 1.0 5.0 0.00 0.00 0.00 993.3
20220816124557 0 227 0.0 1.0 0.00 0.00 0.00 993.2
20220816123058 0 173 0.0 2.0 0.00 0.00 0.00 993.0
20220816121549 0 173 0.0 3.0 0.00 0.00 0.00 993.0
20220816120044 0 216 0.0 3.0 0.00 0.00 0.00 992.7
20220816114551 0 205 0.0 2.0 0.00 0.00 0.00 992.5
20220816113039 0 205 0.0 2.0 0.00 0.00 0.00 992.3
20220816111543 0 188 1.0 4.0 0.00 0.00 0.00 992.3
20220816110036 0 210 1.0 5.0 0.00 0.00 0.00 992.2
20220816104521 0 193 1.0 4.0 0.00 0.00 0.00 992.1
20220816103025 0 228 0.0 3.0 0.00 0.00 0.00 992.0
20220816101525 0 198 1.0 4.0 0.00 0.00 0.00 991.9
20220816100019 0 212 0.0 2.0 0.00 0.00 0.00 991.8
20220816094514 0 206 0.0 1.0 0.00 0.00 0.00 991.8
20220816093113 0 206 0.0 4.0 0.00 0.00 0.00 991.9
20220816091603 0 232 1.0 6.0 0.00 0.00 0.00 991.6
20220816090113 0 194 2.0 6.0 0.00 0.00 0.00 991.6
20220816084604 0 219 3.0 8.0 0.00 0.00 0.00 991.7
20220816083042 0 203 3.0 10.0 0.00 0.00 0.00 991.7
20220816081543 0 221 5.0 12.0 0.00 0.00 0.00 991.6
20220816080034 0 216 4.0 10.0 0.00 0.00 0.00 991.6
20220816074539 0 216 2.0 9.0 0.00 0.00 0.00 991.6
20220816073024 0 205 1.0 5.0 0.00 0.00 0.00 991.7
20220816071520 0 181 0.0 2.0 0.00 0.00 0.00 991.7
20220816070024 0 181 0.0 2.0 0.00 0.00 0.00 991.8
20220816064512 0 181 0.0 4.0 0.00 0.00 0.00 991.9
20220816063006 0 164 1.0 3.0 0.00 0.00 0.00 992.0
20220816061502 0 218 0.0 3.0 0.00 0.00 0.00 991.9
20220816060104 0 199 1.0 3.0 0.00 0.00 0.00 991.9
20220816054604 0 211 0.0 2.0 0.00 0.00 0.00 992.0
20220816053049 0 212 0.0 2.0 0.00 0.00 0.00 992.0
20220816051607 0 191 1.0 4.0 0.00 0.00 0.00 991.9
20220816050047 0 223 0.0 2.0 0.00 0.00 0.00 991.8
20220816044551 0 113 0.0 1.0 0.00 0.00 0.00 991.7
20220816043048 0 113 0.0 1.0 0.00 0.00 0.00 991.7
20220816041541 0 113 0.0 0.0 0.00 0.00 0.00 991.8
20220816040058 0 113 0.0 1.0 0.00 0.00 0.00 991.7
20220816034604 0 113 0.0 1.0 0.00 0.00 0.00 991.7
20220816033035 0 113 0.0 2.0 0.00 0.00 0.00 991.6
20220816031601 0 134 1.0 3.0 0.00 0.00 0.00 991.5
20220816030027 0 129 0.0 2.0 0.00 0.00 0.00 991.3
20220816024553 0 164 2.0 4.0 0.00 0.00 0.00 991.2
20220816023018 0 178 0.0 2.0 0.00 0.00 0.00 990.9
20220816021514 0 178 0.0 1.0 0.00 0.00 0.00 990.8